Погода в Алейске

Погода в Алейске : погода сейчас, прогноз погоды и архив. Всё, что Вы хотите узнать о погоде в Алейске!

Хотите узнать прогноз погоды в Алейске? Тогда Вам сюда: Погода в Алейске

Поиск расширенной информации на нашем сайте:

Другие новости

Новости СМИ2

Главная страница сайта

Новости сайта

02.10.2013

Напоминаем, что на нашем новом сайте вы можете получить высокодетализированные прогнозы погоды по пунктам России, СНГ и мира (включающие важные для авиации метеовеличины, такие как направление и скорость ветра, видимость, явления погоды, количество и форма облачности, нижняя и верхняя граница облачности), а также ознакомиться с разнообразными материалами по авиационной метеорологии и подборкой полезных ссылок на эту тему.

Сайт Метеоцентр.Азия посвящён разработке технологий оптимизации авиаметеорологического обслуживания, включая проектирование и перспективное создание нескольких автоматизированных авиаметеорологических систем:
- система выпуска высокодетальных прогностических карт явлений погоды для нижнего воздушного пространства по России и ближнему зарубежью;
- система верификации прогнозов TAF (выпускаемых синоптиками официальных АМСГ РФ и ближнего зарубежья) и AUTOTAF (выпускаемых сайтом Метеоцентр.Азия) - выявление ошибок, онлайн-сопоставление с фактической погодой METAR, автоматическое внесение коррективов в прогнозы при резком отклонении фактической погоды от прогноза, подсчёт оправдываемости прогнозов по элементам и в целом;
- система обработки, анализа и отображения авиаметеорологической информации для применения провайдерами метеорологической информации.

Рекомендуем: овощи доставка стоимость

Погода в Алейске - сегодня

Время (UTC), дата Ветер
(°,м/с) 
Видим.   Явления Облачность Т
(°С)
Тd
(°С)
f(%) Тe
(°С)
Pmin
(гПа)
dP
(гПа)
Po
(мм)
O2
(г/м3)
Тmin Tmax R s Состояние
почвы
03 23.04.17 200 (Ю) 10 км    10/10 300 м 
[Sc]
+6.8 +2.7 75 +5  1020  2.5  749  294  +6.7         
06 23.04.17 220 (ЮЗ) 5-10{10}  20000 м    10/10 600 м 
[Sc]
+8.2 +0.8 60 +7  1021.7  1.7  750  293           
09 23.04.17 200 (Ю) 3{10}  20000 м    6/6 600 м 
[Sc]
+11 +0.8 49 +11  1021.2  -0.2  750  290           
12 23.04.17 210 (ЮЗ) 20000 м    ясно 
+13.1 -1.8 36 +14  1020.4  -0.7  749  288    +13.2       
15 23.04.17 060 (СВ) 20000 м    3/3 600 м 
[Sc]
+6.8 +1.2 67 +8  1019.9  -0.9  749  294           
18 23.04.17 070 (В) 20000 м    ясно 
+5.9 -0 66 +7  1019  -1  748  295           
21 23.04.17 060 (СВ) 20000 м    4/4 600 м 
[Sc]
+5.8 +0.1 67 +7  1017.5  -1.5  747  295           
00 24.04.17 190 (Ю) 20000 м    8/8 600 м 
[Sc]
+6.9 +1.1 67 +7  1017.7  0.3  747  293  +4.1         
03 24.04.17 200 (Ю) 20000 м    5/3 600 м средняя, верхняя 
[Sc|Ac cast|Ci fib]
+10.8 +2.5 56 +10  1019.2  1.8  749  290           
06 24.04.17 170 (Ю) 5-10{10}  20000 м    8/8 1000 м 
[Cu Sc]
+14.7 +2.1 42 +14  1019.1  0.2  749  286           
09 24.04.17 240 (ЮЗ) 5{11}  20000 м    10/10 600 м 
[Sc]
+13.2 +1.5 45 +12  1019.9  0.7  749  288           
12 24.04.17 230 (ЮЗ) 4{10}  20000 м    8/8 600 м 
[Sc]
+13.2 +0.2 41 +13  1020.3  0.3  749  288    +15.4       
15 24.04.17 250 (З) 20000 м    6/6 600 м 
[Sc]
+8.9 +1.3 59 +9  1023.1  2.5  751  293           
18 24.04.17 250 (З) 20000 м    9/9 600 м 
[Sc]
+7.6 +2.1 68 +8  1025.2  1.9  753  295           
21 24.04.17 250 (З) 20000 м    9/9 600 м 
[Sc]
+7.3 +2.1 70 +8  1025.9  0.7  753  295           
00 25.04.17 тихо ()   10 км    9/9 600 м 
[Sc]
+6.7 +2.6 75 +7  1027.6  1.6  754  296  +6.4         
03 25.04.17 040 (СВ) 20000 м    8/0 средняя, верхняя 
[Ac trans|Cs]
+11.3 +2.2 53 +12  1028.9  1.7  756  292           
06 25.04.17 030 (СВ) 20000 м    6/6 300 м 
[Cu Sc]
+14.1 -0.7 36 +14  1028.9  0.1  756  290           
09 25.04.17 040 (СВ) 20000 м    4/4 600 м 
[Cu hum]
+16 -0.5 32 +16  1027.9  -0.8  755  287           
12 25.04.17 050 (СВ) 20000 м    ясно 
+15.5 -1.1 32 +16  1027.4  -0.6  755  288    +16.4       
15 25.04.17 040 (СВ) 20000 м    3/0 верхняя 
[Ci fib]
+9.7 +2.7 62 +11  1028  0.2  755  293           
18 25.04.17 040 (СВ) 20000 м    ясно 
+7.3 +2.1 70 +7  1027.3  -0.9  754  296           
21 25.04.17 030 (СВ) 20000 м    ясно 
+6.5 +1 68 +6  1025.3  -2  753  296           
00 26.04.17 050 (СВ) 20000 м    1/0 верхняя 
[Ci fib]
+5.4 +0.9 73 +5  1024.4  -0.9  752  297  +4.9         
03 26.04.17 040 (СВ) 20000 м    3/0 верхняя 
[Ci fib]
+13.4 +3.1 50 +13  1022.7  -1.1  751  288           
Время (UTC), дата Ветер
(°,м/с) 
Видим.   Явления Облачность Т
(°С)
Тd
(°С)
f(%) Тe
(°С)
Pmin
(гПа)
dP
(гПа)
Po
(мм)
O2
(г/м3)
Тmin Tmax R s Состояние
почвы

Для получения пояснительной информации подведите курсор к названию столбца.

ПОГОДА в Алейске - архив

Всё, что Вы хотите узнать о погоде в Алейске - удобно и подробно!

Выберите нужную дату (начиная с 1 января 2015* года) и нажмите кнопку "Найти".
Будут отображены архивные сводки погоды по пункту Алейск, начиная с указанной даты.


Отображать данные в формате CSV (для использования в таблицах Excel)


Внимание! Наш архив погоды предназначен исключительно для личного некоммерческого использования в познавательных целях. Если Вам необходимы официальные справки о состоянии погоды (для производственных, юридических, коммерческих и т.п. целей), обращайтесь в органы Росгидромета.

*Примечание: данная дата относится к архиву по метеостанциям СССР (Россия, СНГ, Балтия).
Архив по метеостанциям Зарубежной Европы и Азии (кроме Китая) хранится 10 дней, по другим регионам земного шара (Китай, Африка, Америка, Австралия, Океания) - 1 день.

Алейск - район местоположения метеостанции


Название, широта, долгота, высота метеостанции:
Алейск 52.6°ш. 82.8°д. 175 м над ур. моря [Российская Федерация]

Дополнительная информация

В oтличие oт бoльшинства пoгoдных сайтoв мы публикуем пoдрoбную метеoинфoрмацию в детальнoм прoфессиoнальнoм фoрмате.

Характеристики температуры и влажнoсти вoздуха измеряются на высoте 2 м в тени вдали oт зданий и деревьев.
Скoрoсть ветра измеряется на высoте 10 м (на урoвне рoста челoвека скoрoсть ветра ниже в 1.5-2 раза). Если метеoстанция нахoдится в гoрoде или в лесу, тo скoрoсть ветра занижена на 2-4 м/с пo сравнению с oткрытым местoм. Скoрoсть ветра над акватoриями крупных рек и oзёр, а также на вершинах хoлмoв на 2-5 м/с выше, чем в oбычных услoвиях.
Атмoсфернoе давление в разных тoчках местнoсти мoжет значительнo oтличаться oт давления на метеoстанции, в зависимoсти oт услoвий рельефа (при пoдъёме на 10 м давление пoнижается примернo на 1 мм рт.ст.).